Location: Williams Chapel
(35.3368°N, 89.8362°W)
Time: 19:24:48
(UTC+00:00)

Envisat - Pass Details

Date: 14 October 2024
Orbit: 761 x 763 km, 98.3° (Epoch: 12 November)

Event Time Altitude Azimuth Distance (km) Brightness Sun altitude
Rises 09:12:32 0° 10° (N) 3,230 6.5 -35.7°
Reaches altitude 10° 09:14:51 10° 8° (N) 2,301 5.7 -35.2°
Enters shadow 09:15:06 11° 8° (N) 2,198 5.6 -35.2°
